| time (UTC) | temp F | wind direction | speed MPH | gust MPH | rain 1hr in | rain 24hr in | rain mn in | humidity % | barometer mb |
| 20260509035907 | 63 | 212 | 11.0 | 5.0 | 0.00 | 0.00 | 0.00 | 45 | |
| 20260509035410 | 63 | 211 | 8.0 | 10.0 | 0.00 | 0.00 | 0.00 | 44 | |
| 20260509034913 | 63 | 225 | 9.0 | 13.0 | 0.00 | 0.00 | 0.00 | 44 | |
| 20260509034414 | 64 | 221 | 10.0 | 17.0 | 0.00 | 0.00 | 0.00 | 44 | |
| 20260509033916 | 64 | 236 | 11.0 | 8.0 | 0.00 | 0.00 | 0.00 | 44 | |
| 20260509033419 | 64 | 217 | 9.0 | 7.0 | 0.00 | 0.00 | 0.00 | 43 | |
| 20260509032918 | 64 | 203 | 7.0 | 14.0 | 0.00 | 0.00 | 0.00 | 43 | |
| 20260509032421 | 64 | 224 | 13.0 | 18.0 | 0.00 | 0.00 | 0.00 | 43 | |
| 20260509031922 | 64 | 205 | 10.0 | 9.0 | 0.00 | 0.00 | 0.00 | 42 | |
| 20260509031426 | 65 | 233 | 9.0 | 4.0 | 0.00 | 0.00 | 0.00 | 42 | |
| 20260509030927 | 65 | 233 | 11.0 | 12.0 | 0.00 | 0.00 | 0.00 | 41 | |
| 20260509030429 | 65 | 217 | 12.0 | 16.0 | 0.00 | 0.00 | 0.00 | 40 | |
| 20260509025929 | 66 | 229 | 14.0 | 12.0 | 0.00 | 0.00 | 0.00 | 39 | |
| 20260509025431 | 66 | 238 | 11.0 | 8.0 | 0.00 | 0.00 | 0.00 | 37 | |
| 20260509024934 | 66 | 233 | 12.0 | 10.0 | 0.00 | 0.00 | 0.00 | 37 | |
| 20260509024435 | 67 | 221 | 12.0 | 12.0 | 0.00 | 0.00 | 0.00 | 35 | |
| 20260509023938 | 67 | 217 | 14.0 | 14.0 | 0.00 | 0.00 | 0.00 | 34 | |
| 20260509023440 | 68 | 224 | 12.0 | 13.0 | 0.00 | 0.00 | 0.00 | 33 | |
| 20260509022939 | 68 | 204 | 14.0 | 10.0 | 0.00 | 0.00 | 0.00 | 32 | |
| 20260509022441 | 68 | 225 | 15.0 | 10.0 | 0.00 | 0.00 | 0.00 | 30 | |
| 20260509021943 | 69 | 219 | 14.0 | 18.0 | 0.00 | 0.00 | 0.00 | 28 | |
| 20260509021446 | 69 | 250 | 11.0 | 7.0 | 0.00 | 0.00 | 0.00 | 28 | |
| 20260509020948 | 70 | 228 | 12.0 | 12.0 | 0.00 | 0.00 | 0.00 | 26 | |
| 20260509020450 | 70 | 229 | 16.0 | 13.0 | 0.00 | 0.00 | 0.00 | 25 | |
| 20260509015949 | 71 | 207 | 17.0 | 11.0 | 0.00 | 0.00 | 0.00 | 25 | |
| 20260509015452 | 71 | 210 | 14.0 | 10.0 | 0.00 | 0.00 | 0.00 | 23 | |
| 20260509014954 | 72 | 218 | 12.0 | 11.0 | 0.00 | 0.00 | 0.00 | 23 | |
| 20260509014456 | 72 | 183 | 15.0 | 19.0 | 0.00 | 0.00 | 0.00 | 21 | |
| 20260509013958 | 73 | 229 | 13.0 | 9.0 | 0.00 | 0.00 | 0.00 | 20 | |
| 20260509013502 | 73 | 228 | 10.0 | 7.0 | 0.00 | 0.00 | 0.00 | 20 | |
| 20260509012502 | 74 | 221 | 13.0 | 16.0 | 0.00 | 0.00 | 0.00 | 16 | |
| 20260509012004 | 75 | 210 | 14.0 | 14.0 | 0.00 | 0.00 | 0.00 | 12 | |
| 20260509011507 | 75 | 219 | 15.0 | 17.0 | 0.00 | 0.00 | 0.00 | 13 | |
| 20260509011009 | 76 | 211 | 15.0 | 16.0 | 0.00 | 0.00 | 0.00 | 12 | |
| 20260509010511 | 77 | 217 | 11.0 | 16.0 | 0.00 | 0.00 | 0.00 | 10 | |
| 20260509010010 | 77 | 212 | 17.0 | 16.0 | 0.00 | 0.00 | 0.00 | 8 | |
| 20260509005514 | 77 | 231 | 18.0 | 20.0 | 0.00 | 0.00 | 0.00 | 6 | |
| 20260509005015 | 78 | 225 | 15.0 | 14.0 | 0.00 | 0.00 | 0.00 | 6 | |
| 20260509004517 | 78 | 231 | 15.0 | 16.0 | 0.00 | 0.00 | 0.00 | 6 | |
| 20260509004019 | 78 | 207 | 14.0 | 7.0 | 0.00 | 0.00 | 0.00 | 6 | |
| 20260509003522 | 78 | 221 | 12.0 | 6.0 | 0.00 | 0.00 | 0.00 | 6 | |
| 20260509003021 | 78 | 217 | 15.0 | 9.0 | 0.00 | 0.00 | 0.00 | 6 | |
| 20260509002523 | 79 | 248 | 7.0 | 3.0 | 0.00 | 0.00 | 0.00 | 6 | |
| 20260509002025 | 79 | 210 | 15.0 | 9.0 | 0.00 | 0.00 | 0.00 | 6 | |
| 20260509001030 | 79 | 214 | 11.0 | 12.0 | 0.00 | 0.00 | 0.00 | 6 | |
| 20260509000032 | 79 | 218 | 16.0 | 10.0 | 0.00 | 0.00 | 0.00 | 5 | |
| 20260508235533 | 79 | 200 | 11.0 | 15.0 | 0.00 | 0.00 | 0.00 | 5 | |
| 20260508235036 | 79 | 210 | 16.0 | 20.0 | 0.00 | 0.00 | 0.00 | 5 | |
| 20260508234538 | 79 | 217 | 14.0 | 17.0 | 0.00 | 0.00 | 0.00 | 5 | |
| 20260508234040 | 79 | 211 | 19.0 | 21.0 | 0.00 | 0.00 | 0.00 | 5 | |
| 20260508233542 | 79 | 212 | 14.0 | 14.0 | 0.00 | 0.00 | 0.00 | 5 | |
| 20260508233041 | 80 | 205 | 16.0 | 16.0 | 0.00 | 0.00 | 0.00 | 5 | |
| 20260508232544 | 80 | 194 | 14.0 | 16.0 | 0.00 | 0.00 | 0.00 | 6 | |
| 20260508232046 | 80 | 211 | 14.0 | 22.0 | 0.00 | 0.00 | 0.00 | 6 | |
| 20260508231550 | 80 | 188 | 10.0 | 7.0 | 0.00 | 0.00 | 0.00 | 5 | |
| 20260508231051 | 80 | 188 | 16.0 | 10.0 | 0.00 | 0.00 | 0.00 | 5 | |
| 20260508230553 | 80 | 191 | 19.0 | 19.0 | 0.00 | 0.00 | 0.00 | 5 | |
| 20260508230052 | 80 | 217 | 15.0 | 9.0 | 0.00 | 0.00 | 0.00 | 5 | |
| 20260508225554 | 81 | 190 | 16.0 | 5.0 | 0.00 | 0.00 | 0.00 | 5 | |
| 20260508225057 | 81 | 225 | 13.0 | 16.0 | 0.00 | 0.00 | 0.00 | 5 | |
| 20260508224559 | 81 | 207 | 12.0 | 13.0 | 0.00 | 0.00 | 0.00 | 6 | |
| 20260508223603 | 82 | 203 | 14.0 | 13.0 | 0.00 | 0.00 | 0.00 | 5 | |
| 20260508223102 | 82 | 201 | 7.0 | 14.0 | 0.00 | 0.00 | 0.00 | 5 | |
| 20260508222107 | 82 | 228 | 13.0 | 16.0 | 0.00 | 0.00 | 0.00 | 5 | |
| 20260508221609 | 83 | 233 | 12.0 | 18.0 | 0.00 | 0.00 | 0.00 | 5 | |
| 20260508221112 | 83 | 226 | 11.0 | 8.0 | 0.00 | 0.00 | 0.00 | 5 | |
| 20260508220614 | 83 | 193 | 14.0 | 12.0 | 0.00 | 0.00 | 0.00 | 6 | |
| 20260508220113 | 82 | 226 | 13.0 | 14.0 | 0.00 | 0.00 | 0.00 | 6 | |
| 20260508215615 | 83 | 229 | 14.0 | 12.0 | 0.00 | 0.00 | 0.00 | 6 | |
| 20260508215117 | 83 | 233 | 14.0 | 12.0 | 0.00 | 0.00 | 0.00 | 6 | |
| 20260508214620 | 83 | 218 | 5.0 | 6.0 | 0.00 | 0.00 | 0.00 | 6 | |
| 20260508214122 | 83 | 238 | 13.0 | 18.0 | 0.00 | 0.00 | 0.00 | 6 | |
| 20260508213624 | 82 | 225 | 13.0 | 14.0 | 0.00 | 0.00 | 0.00 | 6 | |
| 20260508213123 | 82 | 236 | 11.0 | 15.0 | 0.00 | 0.00 | 0.00 | 6 | |
| 20260508212626 | 82 | 217 | 11.0 | 18.0 | 0.00 | 0.00 | 0.00 | 6 | |
| 20260508212128 | 82 | 225 | 15.0 | 17.0 | 0.00 | 0.00 | 0.00 | 6 | |
| 20260508211630 | 82 | 224 | 11.0 | 8.0 | 0.00 | 0.00 | 0.00 | 6 | |
| 20260508211132 | 82 | 246 | 14.0 | 8.0 | 0.00 | 0.00 | 0.00 | 6 | |
| 20260508210635 | 82 | 238 | 9.0 | 16.0 | 0.00 | 0.00 | 0.00 | 6 | |
| 20260508210134 | 81 | 239 | 15.0 | 9.0 | 0.00 | 0.00 | 0.00 | 6 | |
| 20260508205636 | 81 | 232 | 15.0 | 15.0 | 0.00 | 0.00 | 0.00 | 7 | |
| 20260508205139 | 81 | 222 | 9.0 | 10.0 | 0.00 | 0.00 | 0.00 | 9 | |
| 20260508204641 | 81 | 224 | 14.0 | 9.0 | 0.00 | 0.00 | 0.00 | 10 | |
| 20260508204144 | 81 | 228 | 11.0 | 16.0 | 0.00 | 0.00 | 0.00 | 10 | |
| 20260508203645 | 81 | 221 | 11.0 | 15.0 | 0.00 | 0.00 | 0.00 | 11 | |
| 20260508203144 | 81 | 225 | 14.0 | 15.0 | 0.00 | 0.00 | 0.00 | 11 | |
| 20260508202647 | 81 | 224 | 12.0 | 6.0 | 0.00 | 0.00 | 0.00 | 11 | |
| 20260508202149 | 82 | 250 | 12.0 | 6.0 | 0.00 | 0.00 | 0.00 | 11 | |
| 20260508201652 | 82 | 238 | 7.0 | 11.0 | 0.00 | 0.00 | 0.00 | 10 | |
| 20260508201154 | 82 | 233 | 10.0 | 14.0 | 0.00 | 0.00 | 0.00 | 10 | |
| 20260508200656 | 82 | 226 | 9.0 | 17.0 | 0.00 | 0.00 | 0.00 | 10 | |
| 20260508200155 | 82 | 231 | 7.0 | 14.0 | 0.00 | 0.00 | 0.00 | 9 | |
| 20260508195657 | 82 | 212 | 7.0 | 0.0 | 0.00 | 0.00 | 0.00 | 7 | |
| 20260508195159 | 81 | 215 | 5.0 | 8.0 | 0.00 | 0.00 | 0.00 | 9 | |
| 20260508194702 | 82 | 228 | 13.0 | 9.0 | 0.00 | 0.00 | 0.00 | 8 | |
| 20260508194204 | 82 | 214 | 12.0 | 6.0 | 0.00 | 0.00 | 0.00 | 8 | |
| 20260508193706 | 82 | 226 | 11.0 | 11.0 | 0.00 | 0.00 | 0.00 | 7 | |
| 20260508193206 | 82 | 214 | 7.0 | 8.0 | 0.00 | 0.00 | 0.00 | 8 | |
| 20260508192708 | 82 | 208 | 4.0 | 8.0 | 0.00 | 0.00 | 0.00 | 7 | |
| 20260508192211 | 81 | 231 | 9.0 | 0.0 | 0.00 | 0.00 | 0.00 | 8 | |
| 20260508191712 | 81 | 221 | 12.0 | 8.0 | 0.00 | 0.00 | 0.00 | 7 | |
| 20260508191215 | 81 | 218 | 7.0 | 0.0 | 0.00 | 0.00 | 0.00 | 7 | |
| 20260508190717 | 82 | 231 | 10.0 | 10.0 | 0.00 | 0.00 | 0.00 | 7 | |
| 20260508190216 | 82 | 219 | 4.0 | 0.0 | 0.00 | 0.00 | 0.00 | 7 | |
| 20260508185719 | 82 | 231 | 7.0 | 11.0 | 0.00 | 0.00 | 0.00 | 6 | |
| 20260508185221 | 83 | 229 | 10.0 | 12.0 | 0.00 | 0.00 | 0.00 | 6 | |
| 20260508184723 | 83 | 221 | 9.0 | 8.0 | 0.00 | 0.00 | 0.00 | 6 | |
| 20260508184225 | 83 | 229 | 6.0 | 7.0 | 0.00 | 0.00 | 0.00 | 6 | |
| 20260508183728 | 83 | 222 | 0.0 | 0.0 | 0.00 | 0.00 | 0.00 | 6 | |
| 20260508183227 | 83 | 238 | 0.0 | 0.0 | 0.00 | 0.00 | 0.00 | 6 | |
| 20260508182730 | 83 | 184 | 1.0 | 4.0 | 0.00 | 0.00 | 0.00 | 5 | |
| 20260508182232 | 84 | 212 | 0.0 | 0.0 | 0.00 | 0.00 | 0.00 | 4 | |
| 20260508181735 | 84 | 212 | 0.0 | 0.0 | 0.00 | 0.00 | 0.00 | 4 | |
| 20260508181236 | 84 | 212 | 0.0 | 0.0 | 0.00 | 0.00 | 0.00 | 4 | |
| 20260508180739 | 84 | 212 | 0.0 | 0.0 | 0.00 | 0.00 | 0.00 | 4 | |
| 20260508180238 | 83 | 212 | 0.0 | 0.0 | 0.00 | 0.00 | 0.00 | 5 | |
| 20260508175740 | 83 | 212 | 0.0 | 0.0 | 0.00 | 0.00 | 0.00 | 5 | |
| 20260508175242 | 82 | 212 | 0.0 | 0.0 | 0.00 | 0.00 | 0.00 | 5 | |
| 20260508174745 | 82 | 212 | 0.0 | 0.0 | 0.00 | 0.00 | 0.00 | 5 | |
| 20260508174247 | 82 | 212 | 0.0 | 0.0 | 0.00 | 0.00 | 0.00 | 5 | |
| 20260508173749 | 82 | 212 | 0.0 | 0.0 | 0.00 | 0.00 | 0.00 | 5 | |
| 20260508173249 | 82 | 212 | 0.0 | 0.0 | 0.00 | 0.00 | 0.00 | 5 | |
| 20260508172751 | 82 | 212 | 0.0 | 0.0 | 0.00 | 0.00 | 0.00 | 5 | |
| 20260508172253 | 81 | 212 | 0.0 | 0.0 | 0.00 | 0.00 | 0.00 | 5 | |
| 20260508171755 | 81 | 212 | 0.0 | 0.0 | 0.00 | 0.00 | 0.00 | 5 | |
| 20260508171258 | 80 | 212 | 0.0 | 0.0 | 0.00 | 0.00 | 0.00 | 6 | |
| 20260508170800 | 80 | 212 | 0.0 | 0.0 | 0.00 | 0.00 | 0.00 | 6 | |
| 20260508170457 | 79 | 212 | 0.0 | 0.0 | 0.00 | 0.00 | 0.00 | 6 | |
| 20260508170259 | 79 | 212 | 0.0 | 0.0 | 0.00 | 0.00 | 0.00 | 6 | |
| 20260508165802 | 79 | 212 | 0.0 | 0.0 | 0.00 | 0.00 | 0.00 | 6 | |
| 20260508165306 | 79 | 212 | 0.0 | 0.0 | 0.00 | 0.00 | 0.00 | 6 | |
| 20260508164309 | 79 | 212 | 0.0 | 0.0 | 0.00 | 0.00 | 0.00 | 6 | |
| 20260508163811 | 79 | 212 | 0.0 | 0.0 | 0.00 | 0.00 | 0.00 | 6 | |
| 20260508163310 | 78 | 212 | 0.0 | 0.0 | 0.00 | 0.00 | 0.00 | 6 | |
| 20260508162812 | 78 | 212 | 0.0 | 0.0 | 0.00 | 0.00 | 0.00 | 6 | |
| 20260508162315 | 77 | 212 | 0.0 | 0.0 | 0.00 | 0.00 | 0.00 | 7 | |
| 20260508161817 | 77 | 212 | 0.0 | 0.0 | 0.00 | 0.00 | 0.00 | 8 | |
| 20260508161320 | 76 | 212 | 0.0 | 0.0 | 0.00 | 0.00 | 0.00 | 9 | |
| 20260508160822 | 75 | 212 | 0.0 | 0.0 | 0.00 | 0.00 | 0.00 | 9 | |
| 20260508160322 | 75 | 212 | 0.0 | 0.0 | 0.00 | 0.00 | 0.00 | 11 | |
| 20260508155824 | 74 | 212 | 0.0 | 0.0 | 0.00 | 0.00 | 0.00 | 11 | |
| 20260508155326 | 73 | 212 | 0.0 | 0.0 | 0.00 | 0.00 | 0.00 | 12 | |
| 20260508154828 | 73 | 212 | 0.0 | 0.0 | 0.00 | 0.00 | 0.00 | 13 | |
| 20260508154330 | 72 | 212 | 0.0 | 0.0 | 0.00 | 0.00 | 0.00 | 14 | |
| 20260508153833 | 72 | 212 | 0.0 | 0.0 | 0.00 | 0.00 | 0.00 | 14 | |
| 20260508153332 | 71 | 212 | 0.0 | 0.0 | 0.00 | 0.00 | 0.00 | 16 | |
| 20260508152834 | 70 | 212 | 0.0 | 0.0 | 0.00 | 0.00 | 0.00 | 19 | |
| 20260508152336 | 70 | 212 | 0.0 | 0.0 | 0.00 | 0.00 | 0.00 | 23 | |
| 20260508151839 | 69 | 212 | 0.0 | 0.0 | 0.00 | 0.00 | 0.00 | 25 | |
| 20260508151341 | 69 | 212 | 0.0 | 0.0 | 0.00 | 0.00 | 0.00 | 25 | |
| 20260508150844 | 68 | 212 | 0.0 | 0.0 | 0.00 | 0.00 | 0.00 | 26 | |
| 20260508150343 | 68 | 212 | 0.0 | 0.0 | 0.00 | 0.00 | 0.00 | 28 | |
| 20260508145845 | 67 | 212 | 0.0 | 0.0 | 0.00 | 0.00 | 0.00 | 31 | |
| 20260508145348 | 66 | 212 | 0.0 | 0.0 | 0.00 | 0.00 | 0.00 | 33 | |
| 20260508144850 | 65 | 212 | 0.0 | 0.0 | 0.00 | 0.00 | 0.00 | 33 | |
| 20260508144352 | 64 | 212 | 0.0 | 0.0 | 0.00 | 0.00 | 0.00 | 36 | |
| 20260508143854 | 64 | 212 | 0.0 | 0.0 | 0.00 | 0.00 | 0.00 | 39 | |
| 20260508142856 | 63 | 160 | 0.0 | 0.0 | 0.00 | 0.00 | 0.00 | 42 | |
| 20260508142439 | 62 | 205 | 0.0 | 0.0 | 0.00 | 0.00 | 0.00 | 44 | |
| 20260508142358 | 62 | 205 | 0.0 | 0.0 | 0.00 | 0.00 | 0.00 | 44 | |
| 20260508141900 | 62 | 203 | 1.0 | 0.0 | 0.00 | 0.00 | 0.00 | 45 | |
| 20260508141403 | 61 | 181 | 2.0 | 4.0 | 0.00 | 0.00 | 0.00 | 47 | |
| 20260508140905 | 60 | 212 | 0.0 | 0.0 | 0.00 | 0.00 | 0.00 | 49 | |
| 20260508140404 | 60 | 212 | 0.0 | 0.0 | 0.00 | 0.00 | 0.00 | 51 | |
| 20260508135907 | 59 | 212 | 1.0 | 4.0 | 0.00 | 0.00 | 0.00 | 55 | |
| 20260508135409 | 58 | 207 | 0.0 | 0.0 | 0.00 | 0.00 | 0.00 | 57 | |
| 20260508134911 | 57 | 207 | 0.0 | 0.0 | 0.00 | 0.00 | 0.00 | 58 | |
| 20260508134414 | 56 | 207 | 0.0 | 0.0 | 0.00 | 0.00 | 0.00 | 60 | |
| 20260508133916 | 56 | 207 | 0.0 | 0.0 | 0.00 | 0.00 | 0.00 | 61 | |
| 20260508133415 | 55 | 207 | 0.0 | 0.0 | 0.00 | 0.00 | 0.00 | 61 | |
| 20260508132917 | 55 | 207 | 0.0 | 0.0 | 0.00 | 0.00 | 0.00 | 61 | |
| 20260508132420 | 55 | 207 | 0.0 | 0.0 | 0.00 | 0.00 | 0.00 | 60 | |
| 20260508131922 | 55 | 207 | 0.0 | 0.0 | 0.00 | 0.00 | 0.00 | 58 | |
| 20260508131424 | 55 | 207 | 0.0 | 0.0 | 0.00 | 0.00 | 0.00 | 55 | |
| 20260508130928 | 55 | 207 | 0.0 | 0.0 | 0.00 | 0.00 | 0.00 | 51 | |
| 20260508130427 | 55 | 207 | 0.0 | 0.0 | 0.00 | 0.00 | 0.00 | 51 | |
| 20260508125928 | 55 | 207 | 0.0 | 0.0 | 0.00 | 0.00 | 0.00 | 50 | |
| 20260508125430 | 55 | 207 | 0.0 | 0.0 | 0.00 | 0.00 | 0.00 | 51 | |
| 20260508124933 | 55 | 207 | 2.0 | 0.0 | 0.00 | 0.00 | 0.00 | 51 | |
| 20260508124435 | 55 | 214 | 0.0 | 0.0 | 0.00 | 0.00 | 0.00 | 51 | |
| 20260508123937 | 56 | 214 | 0.0 | 0.0 | 0.00 | 0.00 | 0.00 | 51 | |
| 20260508123437 | 56 | 214 | 0.0 | 0.0 | 0.00 | 0.00 | 0.00 | 51 | |
| 20260508122939 | 56 | 214 | 4.0 | 0.0 | 0.00 | 0.00 | 0.00 | 53 | |
| 20260508122441 | 56 | 235 | 0.0 | 0.0 | 0.00 | 0.00 | 0.00 | 53 | |
| 20260508121944 | 56 | 207 | 1.0 | 0.0 | 0.00 | 0.00 | 0.00 | 55 | |
| 20260508121446 | 56 | 179 | 2.0 | 0.0 | 0.00 | 0.00 | 0.00 | 56 | |
| 20260508120949 | 56 | 207 | 4.0 | 4.0 | 0.00 | 0.00 | 0.00 | 59 | |
| 20260508120447 | 56 | 197 | 5.0 | 4.0 | 0.00 | 0.00 | 0.00 | 59 | |
| 20260508115950 | 56 | 212 | 5.0 | 5.0 | 0.00 | 0.00 | 0.00 | 60 | |
| 20260508115452 | 56 | 221 | 4.0 | 5.0 | 0.00 | 0.00 | 0.00 | 60 | |
| 20260508114954 | 56 | 239 | 2.0 | 3.0 | 0.00 | 0.00 | 0.00 | 59 | |
| 20260508114457 | 57 | 226 | 0.0 | 0.0 | 0.00 | 0.00 | 0.00 | 60 | |
| 20260508113458 | 57 | 201 | 5.0 | 6.0 | 0.00 | 0.00 | 0.00 | 61 | |
| 20260508113001 | 57 | 222 | 5.0 | 5.0 | 0.00 | 0.00 | 0.00 | 62 | |
| 20260508112503 | 56 | 222 | 6.0 | 6.0 | 0.00 | 0.00 | 0.00 | 64 | |
| 20260508112005 | 56 | 217 | 7.0 | 8.0 | 0.00 | 0.00 | 0.00 | 66 | |
| 20260508111507 | 56 | 215 | 8.0 | 6.0 | 0.00 | 0.00 | 0.00 | 67 | |
| 20260508110509 | 56 | 211 | 7.0 | 7.0 | 0.00 | 0.00 | 0.00 | 67 | |
| 20260508110012 | 56 | 218 | 7.0 | 5.0 | 0.00 | 0.00 | 0.00 | 68 | |
| 20260508105514 | 56 | 226 | 7.0 | 6.0 | 0.00 | 0.00 | 0.00 | 69 | |
| 20260508105016 | 56 | 229 | 7.0 | 8.0 | 0.00 | 0.00 | 0.00 | 70 | |
| 20260508104518 | 56 | 228 | 8.0 | 10.0 | 0.00 | 0.00 | 0.00 | 71 | |
| 20260508104021 | 56 | 215 | 7.0 | 8.0 | 0.00 | 0.00 | 0.00 | 72 | |
| 20260508103520 | 56 | 204 | 8.0 | 9.0 | 0.00 | 0.00 | 0.00 | 72 | |
| 20260508103022 | 56 | 208 | 7.0 | 8.0 | 0.00 | 0.00 | 0.00 | 71 | |
| 20260508102524 | 56 | 226 | 8.0 | 7.0 | 0.00 | 0.00 | 0.00 | 70 | |
| 20260508102028 | 57 | 217 | 7.0 | 0.0 | 0.00 | 0.00 | 0.00 | 70 | |
| 20260508101529 | 57 | 208 | 7.0 | 4.0 | 0.00 | 0.00 | 0.00 | 71 | |
| 20260508100530 | 57 | 214 | 10.0 | 10.0 | 0.00 | 0.00 | 0.00 | 71 | |
| 20260508100033 | 57 | 228 | 6.0 | 8.0 | 0.00 | 0.00 | 0.00 | 70 | |
| 20260508095535 | 57 | 232 | 7.0 | 8.0 | 0.00 | 0.00 | 0.00 | 69 | |
| 20260508095037 | 57 | 236 | 8.0 | 7.0 | 0.00 | 0.00 | 0.00 | 68 | |
| 20260508094540 | 57 | 243 | 7.0 | 7.0 | 0.00 | 0.00 | 0.00 | 67 | |
| 20260508094042 | 57 | 243 | 7.0 | 7.0 | 0.00 | 0.00 | 0.00 | 65 | |
| 20260508093541 | 58 | 226 | 7.0 | 8.0 | 0.00 | 0.00 | 0.00 | 63 | |
| 20260508092546 | 58 | 217 | 8.0 | 5.0 | 0.00 | 0.00 | 0.00 | 61 | |
| 20260508092048 | 58 | 236 | 7.0 | 9.0 | 0.00 | 0.00 | 0.00 | 60 | |
| 20260508091550 | 59 | 231 | 5.0 | 4.0 | 0.00 | 0.00 | 0.00 | 58 | |
| 20260508091053 | 59 | 243 | 4.0 | 5.0 | 0.00 | 0.00 | 0.00 | 58 | |
| 20260508090552 | 59 | 252 | 5.0 | 0.0 | 0.00 | 0.00 | 0.00 | 57 | |
| 20260508090054 | 59 | 240 | 7.0 | 8.0 | 0.00 | 0.00 | 0.00 | 57 | |
| 20260508085557 | 59 | 184 | 7.0 | 4.0 | 0.00 | 0.00 | 0.00 | 57 | |
| 20260508085059 | 59 | 225 | 7.0 | 4.0 | 0.00 | 0.00 | 0.00 | 58 | |
| 20260508084601 | 59 | 248 | 7.0 | 7.0 | 0.00 | 0.00 | 0.00 | 59 | |
| 20260508084104 | 59 | 219 | 9.0 | 9.0 | 0.00 | 0.00 | 0.00 | 61 | |
| 20260508083603 | 59 | 238 | 10.0 | 8.0 | 0.00 | 0.00 | 0.00 | 61 | |
| 20260508083105 | 59 | 239 | 9.0 | 10.0 | 0.00 | 0.00 | 0.00 | 61 | |
| 20260508082607 | 59 | 250 | 9.0 | 5.0 | 0.00 | 0.00 | 0.00 | 61 | |
| 20260508082110 | 59 | 218 | 10.0 | 7.0 | 0.00 | 0.00 | 0.00 | 63 | |
| 20260508081612 | 59 | 243 | 11.0 | 10.0 | 0.00 | 0.00 | 0.00 | 64 | |
| 20260508081114 | 59 | 225 | 12.0 | 13.0 | 0.00 | 0.00 | 0.00 | 65 | |
| 20260508080613 | 59 | 235 | 13.0 | 12.0 | 0.00 | 0.00 | 0.00 | 65 | |
| 20260508080117 | 59 | 238 | 11.0 | 11.0 | 0.00 | 0.00 | 0.00 | 64 | |
| 20260508075618 | 59 | 212 | 12.0 | 13.0 | 0.00 | 0.00 | 0.00 | 65 | |
| 20260508074623 | 59 | 238 | 10.0 | 12.0 | 0.00 | 0.00 | 0.00 | 65 | |
| 20260508074125 | 59 | 246 | 13.0 | 10.0 | 0.00 | 0.00 | 0.00 | 66 | |
| 20260508073624 | 59 | 233 | 13.0 | 12.0 | 0.00 | 0.00 | 0.00 | 65 | |
| 20260508072131 | 59 | 217 | 12.0 | 14.0 | 0.00 | 0.00 | 0.00 | 64 | |
| 20260508071633 | 60 | 217 | 14.0 | 10.0 | 0.00 | 0.00 | 0.00 | 64 | |
| 20260508071136 | 60 | 225 | 13.0 | 15.0 | 0.00 | 0.00 | 0.00 | 64 | |
| 20260508070635 | 60 | 243 | 12.0 | 12.0 | 0.00 | 0.00 | 0.00 | 63 | |
| 20260508070137 | 60 | 232 | 12.0 | 12.0 | 0.00 | 0.00 | 0.00 | 63 | |
| 20260508065639 | 60 | 242 | 13.0 | 12.0 | 0.00 | 0.00 | 0.00 | 62 | |
| 20260508065142 | 60 | 228 | 16.0 | 16.0 | 0.00 | 0.00 | 0.00 | 63 | |
| 20260508064644 | 60 | 243 | 16.0 | 16.0 | 0.00 | 0.00 | 0.00 | 63 | |
| 20260508064147 | 60 | 226 | 13.0 | 18.0 | 0.00 | 0.00 | 0.00 | 63 | |
| 20260508063646 | 60 | 229 | 17.0 | 15.0 | 0.00 | 0.00 | 0.00 | 63 | |
| 20260508063148 | 60 | 240 | 12.0 | 9.0 | 0.00 | 0.00 | 0.00 | 64 | |
| 20260508062650 | 60 | 231 | 16.0 | 15.0 | 0.00 | 0.00 | 0.00 | 65 | |
| 20260508062153 | 60 | 245 | 12.0 | 12.0 | 0.00 | 0.00 | 0.00 | 64 | |
| 20260508061655 | 60 | 240 | 12.0 | 12.0 | 0.00 | 0.00 | 0.00 | 65 | |
| 20260508061157 | 60 | 240 | 12.0 | 12.0 | 0.00 | 0.00 | 0.00 | 65 | |
| 20260508060656 | 60 | 219 | 14.0 | 17.0 | 0.00 | 0.00 | 0.00 | 65 | |
| 20260508060159 | 60 | 229 | 14.0 | 12.0 | 0.00 | 0.00 | 0.00 | 66 | |
| 20260508055701 | 60 | 236 | 16.0 | 18.0 | 0.00 | 0.00 | 0.00 | 66 | |
| 20260508055203 | 60 | 248 | 11.0 | 11.0 | 0.00 | 0.00 | 0.00 | 66 | |
| 20260508054707 | 60 | 214 | 11.0 | 10.0 | 0.00 | 0.00 | 0.00 | 66 | |
| 20260508054208 | 60 | 240 | 12.0 | 12.0 | 0.00 | 0.00 | 0.00 | 66 | |
| 20260508053708 | 60 | 212 | 13.0 | 12.0 | 0.00 | 0.00 | 0.00 | 66 | |
| 20260508053209 | 59 | 249 | 11.0 | 10.0 | 0.00 | 0.00 | 0.00 | 67 | |
| 20260508052712 | 60 | 255 | 11.0 | 11.0 | 0.00 | 0.00 | 0.00 | 67 | |
| 20260508052214 | 60 | 229 | 11.0 | 12.0 | 0.00 | 0.00 | 0.00 | 68 | |
| 20260508051716 | 60 | 238 | 12.0 | 10.0 | 0.00 | 0.00 | 0.00 | 68 | |
| 20260508051218 | 60 | 248 | 12.0 | 13.0 | 0.00 | 0.00 | 0.00 | 68 | |
| 20260508050718 | 60 | 219 | 14.0 | 14.0 | 0.00 | 0.00 | 0.00 | 68 | |
| 20260508050220 | 60 | 233 | 10.0 | 10.0 | 0.00 | 0.00 | 0.00 | 68 | |
| 20260508045722 | 60 | 235 | 11.0 | 15.0 | 0.00 | 0.00 | 0.00 | 67 | |
| 20260508045224 | 60 | 233 | 14.0 | 14.0 | 0.00 | 0.00 | 0.00 | 69 | |
| 20260508044727 | 60 | 229 | 12.0 | 12.0 | 0.00 | 0.00 | 0.00 | 68 | |
| 20260508044229 | 60 | 221 | 12.0 | 11.0 | 0.00 | 0.00 | 0.00 | 69 | |
| 20260508043728 | 60 | 242 | 13.0 | 13.0 | 0.00 | 0.00 | 0.00 | 67 | |
| 20260508043230 | 60 | 238 | 10.0 | 8.0 | 0.00 | 0.00 | 0.00 | 67 | |
| 20260508042733 | 60 | 243 | 13.0 | 13.0 | 0.00 | 0.00 | 0.00 | 66 | |
| 20260508042235 | 60 | 245 | 11.0 | 10.0 | 0.00 | 0.00 | 0.00 | 66 | |
| 20260508041738 | 60 | 200 | 14.0 | 13.0 | 0.00 | 0.00 | 0.00 | 65 | |
| 20260508041242 | 60 | 217 | 13.0 | 0.0 | 0.00 | 0.00 | 0.00 | 64 | |
| 20260508041240 | 60 | 217 | 13.0 | 12.0 | 0.00 | 0.00 | 0.00 | 64 | |
| 20260508040739 | 61 | 246 | 15.0 | 14.0 | 0.00 | 0.00 | 0.00 | 64 |